Location: Newark
(48.4546°N, 21.8195°E)
Time: 02:42:44
(UTC+00:00)

Envisat - Visible Passes

Search period start: 01 October 2020 00:00
Search period end: 11 October 2020 00:00
Orbit: 764 x 766 km, 98.1° (Epoch: 30 September)

Date Brightness Start Highest point End Pass type
(mag) Time Alt. Az. Time Alt. Az. Time Alt. Az.
01 Oct 6.4 03:09:11 10° ENE 03:11:11 12° E 03:13:12 10° ESE visible
02 Oct 6.2 17:09:00 10° SW 17:12:02 16° W 17:15:05 10° NW visible
03 Oct 6.0 03:33:12 10° NE 03:36:58 21° E 03:40:43 10° SE visible
03 Oct 5.2 16:30:20 10° SSW 16:34:51 32° W 16:39:23 10° NNW visible
05 Oct 5.1 03:58:02 10° NNE 04:02:39 33° E 04:07:13 10° SSE visible
05 Oct 6.1 16:56:54 10° SW 17:00:32 20° W 17:04:11 10° NW visible
06 Oct 6.2 03:22:15 10° NE 03:25:28 17° E 03:28:40 10° SE visible
07 Oct 6.6 17:24:39 10° WSW 17:26:20 11° W 17:28:01 10° WNW visible
08 Oct 5.5 03:46:52 10° NE 03:51:12 27° E 03:55:29 10° SSE visible
08 Oct 5.7 16:44:58 10° SW 16:49:03 24° W 16:53:09 10° NW visible
09 Oct 6.4 03:11:32 10° ENE 03:13:57 13° E 03:16:21 10° ESE visible
10 Oct 4.4 04:11:56 10° NNE 04:16:49 44° E 04:21:39 10° S visible
10 Oct 6.3 17:12:01 10° WSW 17:14:48 15° W 17:17:34 10° NW visible
